Terug naar catalogus

STARLINK-5632

ActiefCommunicatieVLEO
NORAD 55400·PAYLOAD·🇺🇸 United States

Gelanceerd Jan 31, 2023 vanaf Vandenberg Space Force Base

Loading…

Volgende Passages (komende 24 uur)

TLE

VersSource: CelesTrak SupGP

Epoch: Sep 15, 2026, 02:06 UTC

1 55400C 23014K   26258.08798611  .00043731  00000+0  36647-2 0  2580
2 55400  70.0001 306.9248 0004049 265.8017 147.8479 14.98306652    17

Volg STARLINK-5632 in realtime met AllMySat

Download on the App Store